Tracking 29892 objects as of 21-Nov-2024
HD Live streaming from Space Station
objects crossing your sky now

STARLINK-3524

Track STARLINK-3524 now!
10-day predictions
STARLINK-3524 is classified as:


NORAD ID: 51721
Int'l Code: 2022-016H
Perigee: 545.6 km
Apogee: 548.0 km
Inclination: 53.2 °
Period: 95.4 minutes
Semi major axis: 6917 km
RCS: Unknown
Launch date: February 21, 2022
Source: United States (US)
Launch site: AIR FORCE EASTERN TEST RANGE (AFETR)
Your satellite tracking list
Your tracking list is empty




NASA's NSSDC Master Catalog

Two Line Element Set (TLE):
1 51721U 22016H   24325.91420292 -.00004270  00000-0 -25017-3 0  9995
2 51721  53.2173 295.9876 0001792  91.8893 268.2304 15.08864846153028
Source of the keplerian elements: AFSPC